HST 1 20580U 90037B 25131.79391198 .00006717 00000-0 25377-3 0 9991 2 20580 28.4682 291.5340 0002823 50.1461 309.9381 15.24931478727129 ISS (ZARYA) 1 25544U 98067A 25132.37369382 .00009778 00000-0 18229-3 0 9990 2 25544 51.6373 124.4732 0002524 108.2420 34.0962 15.49490177509601 CXO 1 25867U 99040B 25132.41211790 .00000614 00000-0 00000-0 0 9999 2 25867 48.7216 131.4145 8476609 308.9568 359.8615 0.37808717 15808